Regional Weather Roundup
Issued by NWS

Home | Current Version | Previous Version | Graphics & Text | Print | Product List | Glossary On
Versions: 1 2 3 4 5 6 7 8 9 10 11 12 13 14 15 16 17 18 19 20 21 22 23 24 25 26 27 28 29 30 31 32 33 34 35 36 37 38 39 40 41 42 43 44 45 46 47 48 49 50
000
ASUS43 KIND 041459
RWRIN

WEATHER ROUNDUP FOR INDIANA
NATIONAL WEATHER SERVICE INDIANAPOLIS IN
1100 AM EDT TUE AUG 04 2015

NOTE: "FAIR" INDICATES FEW OR NO CLOUDS BELOW 12,000 FEET WITH NO
SIGNIFICANT WEATHER AND/OR OBSTRUCTIONS TO VISIBILITY.

* - STATION DOES NOT REPORT WEATHER SUCH AS PRECIPITATION OR FOG.

+ - STATION NOT QUALITY CONTROLLED BY THE NATIONAL WEATHER SERVICE.
    USE DATA WITH CAUTION...ESPECIALLY DEWPOINT AND RELATIVE
    HUMIDITY OBSERVATIONS.

INZ001>003-010>013-019-020-041600-
NORTHWEST INDIANA

CITY           SKY/WX    TMP DP  RH WIND       PRES   REMARKS
GARY /AIRPORT/ PTSUNNY   77  55  47 NW8       29.98S
KNOX *+        SUNNY     73  61  64 SW5       29.98S
MONTICELLO +   SUNNY     72  62  72 SW6       30.00R
RENSSELAER +   SUNNY     73  63  68 W3        30.00S

$$

LMZ046-743>745-041600-
SOUTHERN LAKE MICHIGAN

STATION/POSITION TIME  TEMP    WIND        PRES    WAVE
                       AIR SEA DIR/SP/G            HT
                 (UTC) (F)     (DEG/KT/KT) (MB)    (FT)
BURNS HARBOR     1400   71     280/  5/  6 1015.6R
MICHIGAN CITY    1400   70     220/ 10/ 11   N/A
5NW MICH CITY    1400   71 74  270/  6/  8   N/A     1

$$

INZ004-005-014>016-021>024-041600-
NORTH CENTRAL INDIANA

CITY           SKY/WX    TMP DP  RH WIND       PRES   REMARKS
ELKHART        SUNNY     75  55  50 W6        29.98R
GOSHEN         SUNNY     74  62  66 W5        29.98R
LOGANSPORT +   SUNNY     72  54  53 SW6       30.01S
SOUTH BEND     SUNNY     77  57  50 NW7       29.98R
WARSAW +       SUNNY     73  61  64 W5        29.99S

$$

INZ006>009-017-018-025>027-041600-
NORTHEAST INDIANA

CITY           SKY/WX    TMP DP  RH WIND       PRES   REMARKS
ANGOLA *+      SUNNY     75  63  64 W3        29.97S
FORT WAYNE     PTSUNNY   75  60  59 SW9       29.99S

$$

INZ028-029-035-036-043>045-051>053-041600-
WEST CENTRAL INDIANA

CITY           SKY/WX    TMP DP  RH WIND       PRES   REMARKS
CRAWFORDSVL +  MOSUNNY   73  54  52 CALM        N/A
GREENCASTLE +  PTSUNNY   73  55  53 CALM      30.03S
LAFAYETTE      MOSUNNY   73  61  65 W7        30.00S
TERRE HAUTE    PTSUNNY   78  57  48 CALM      30.01F

$$

INZ030>032-037>040-046>048-054>057-064-065-041600-
CENTRAL INDIANA

CITY           SKY/WX    TMP DP  RH WIND       PRES   REMARKS
ANDERSON       SUNNY     75  50  41 SW6       30.02R
FRANKFORT +    SUNNY     75  61  61 SW6       30.03R
GREENWOOD *+   MOSUNNY   77  52  41 CALM      30.02R
INDIANAPOLIS   PTSUNNY   77  53  43 SW6       30.00F
-EAGLE CREEK   MOSUNNY   78  56  46 VRB3      30.00S
KOKOMO *+      SUNNY     75  59  57 W10       30.00S
SHELBYVILLE    SUNNY     78  62  57 NW8       30.00S
ZIONSVILLE +   SUNNY     76  56  48 SW7       30.02S

$$

INZ033-034-041-042-049-050-058-059-041600-
EAST CENTRAL INDIANA

CITY           SKY/WX    TMP DP  RH WIND       PRES   REMARKS
MUNCIE         SUNNY     74  58  57 W6        30.00S

$$

INZ060-061-067>069-081>083-085>088-041600-
SOUTHWEST INDIANA

CITY           SKY/WX    TMP DP  RH WIND       PRES   REMARKS
EVANSVILLE     PTSUNNY   81  69  67 N7        30.02R
HUNTINGBURG *+ CLOUDY    75  70  83 CALM      30.02R

$$

INZ062-063-066-070>080-084-089>092-041600-
SOUTH CENTRAL AND SOUTHEAST INDIANA

CITY           SKY/WX    TMP DP  RH WIND       PRES   REMARKS
BLOOMINGTON    PTSUNNY   78  63  59 NW3       30.02R
SEYMOUR +      MOSUNNY   82  63  51 W6        30.00S

$$



USA.gov is the U.S. government's official web portal to all federal, state and local government web resources and services.